DW4776 Weather Reports


time (UTC)temp
F
wind
direction
speed
knots
gust
knots
rain 1hr
in
rain 24hr
in
rain mn
in
humidity
%
barometer
mb
20260506023040 42 4 5.2 10.4 0.00 0.00 0.00 36 1019.1
20260506021535 43 348 7.0 11.3 0.00 0.00 0.00 34 1019.1
20260506020037 44 329 8.7 14.8 0.00 0.00 0.00 34 1018.9
20260506014538 44 341 9.6 15.6 0.00 0.00 0.00 33 1018.9
20260506013041 45 347 12.2 17.4 0.00 0.00 0.00 32 1018.9
20260506011537 45 359 11.3 17.4 0.00 0.00 0.00 32 1018.7
20260506010040 46 360 10.4 16.5 0.00 0.00 0.00 32 1018.7
20260506004605 46 352 10.4 16.5 0.00 0.00 0.00 32 1018.6
20260506003038 46 349 12.2 24.3 0.00 0.00 0.00 31 1018.7
20260506001537 46 359 11.3 20.0 0.00 0.00 0.00 32 1018.7
20260506000041 46 351 12.2 20.0 0.00 0.00 0.00 31 1018.7
20260505234604 47 333 13.0 22.6 0.00 0.00 0.00 32 1018.7
20260505233041 47 324 14.8 21.7 0.00 0.00 0.00 31 1018.7
20260505231539 47 350 14.8 20.9 0.00 0.00 0.00 32 1018.6
20260505230047 47 354 13.9 20.9 0.00 0.00 0.00 32 1018.7
20260505224541 47 339 17.4 25.2 0.00 0.00 0.00 33 1018.6
20260505223058 47 352 13.9 20.9 0.00 0.00 0.00 32 1018.6
20260505221556 46 357 16.5 22.6 0.00 0.00 0.00 33 1018.6
20260505220048 46 279 13.9 21.7 0.00 0.00 0.00 32 1018.7
20260505214543 47 319 11.3 26.1 0.00 0.00 0.00 33 1018.8
20260505213046 46 353 12.2 24.3 0.00 0.00 0.00 32 1018.8
20260505211537 46 308 13.9 22.6 0.00 0.00 0.00 34 1019.1
20260505210044 45 325 9.6 25.2 0.00 0.00 0.00 36 1019.0
20260505204540 45 6 16.5 20.9 0.00 0.00 0.00 35 1019.2
20260505203037 46 315 12.2 22.6 0.00 0.00 0.00 35 1019.4
20260505201537 44 341 13.9 21.7 0.00 0.00 0.00 37 1019.3
20260505200042 45 330 13.9 24.3 0.00 0.00 0.00 37 1019.4
20260505194538 45 331 13.0 19.1 0.00 0.00 0.00 38 1019.3
20260505193036 44 322 13.9 22.6 0.00 0.00 0.00 37 1019.3
20260505191537 44 324 14.8 21.7 0.00 0.00 0.00 39 1019.4
20260505190047 44 352 13.9 21.7 0.00 0.00 0.00 40 1019.2
20260505184535 44 335 16.5 21.7 0.00 0.00 0.00 41 1019.3
20260505183045 44 348 12.2 23.5 0.00 0.00 0.00 39 1019.3
20260505181538 43 331 14.8 25.2 0.00 0.00 0.00 40 1019.4
20260505180035 43 330 13.9 21.7 0.00 0.00 0.00 41 1019.5
20260505174545 43 334 15.6 23.5 0.00 0.00 0.00 41 1019.4
20260505173044 42 20 13.9 21.7 0.00 0.00 0.00 43 1019.5
20260505171537 42 331 13.9 21.7 0.00 0.00 0.00 45 1019.6
20260505170038 42 322 12.2 19.1 0.00 0.00 0.00 43 1019.6
20260505164538 41 348 13.0 19.1 0.00 0.00 0.00 49 1019.5
20260505163039 41 323 13.9 19.1 0.00 0.00 0.00 48 1019.6
20260505161535 40 342 11.3 18.2 0.00 0.00 0.00 51 1019.5
20260505153045 39 321 8.7 13.0 0.00 0.00 0.00 57 1019.8
20260505151535 39 337 9.6 13.9 0.00 0.00 0.00 57 1019.8
20260505124538 34 325 6.1 9.6 0.00 0.00 0.00 67 1018.7
20260505123037 33 338 6.1 9.6 0.00 0.00 0.00 68 1018.5
20260505121540 33 327 7.0 9.6 0.00 0.00 0.00 67 1018.4
20260505120047 34 331 8.7 11.3 0.00 0.00 0.00 68 1018.6
20260505114540 34 335 8.7 10.4 0.00 0.00 0.00 68 1018.6
20260505113037 34 326 9.6 13.0 0.00 0.00 0.00 67 1018.4
20260505111538 34 324 7.8 11.3 0.00 0.00 0.00 67 1018.2
20260505101542 37 351 7.8 10.4 0.00 0.00 0.00 56 1018.3
20260505100040 37 347 7.8 10.4 0.00 0.00 0.00 55 1018.3
20260505094537 37 335 8.7 11.3 0.00 0.00 0.00 54 1018.1
20260505093043 38 347 7.0 10.4 0.00 0.00 0.00 54 1018.1
20260505091539 38 351 7.8 9.6 0.00 0.00 0.00 54 1018.1
20260505090038 38 349 7.0 9.6 0.00 0.00 0.00 55 1018.1
20260505084545 38 345 6.1 8.7 0.00 0.00 0.00 56 1018.2
20260505083038 38 352 5.2 7.8 0.00 0.00 0.00 56 1018.0
20260505081537 38 349 7.0 8.7 0.00 0.00 0.00 55 1018.1
20260505080037 38 354 6.1 8.7 0.00 0.00 0.00 54 1018.0
20260505074539 39 357 4.3 7.0 0.00 0.00 0.00 52 1017.9
20260505073043 39 4 3.5 7.8 0.00 0.00 0.00 51 1017.8
20260505071538 40 356 6.1 9.6 0.00 0.00 0.00 51 1018.0
20260505070043 41 329 9.6 14.8 0.00 0.00 0.00 53 1017.9
20260505064537 40 303 7.0 10.4 0.00 0.00 0.00 53 1017.9
20260505063036 39 325 3.5 6.1 0.00 0.00 0.00 53 1018.0
20260505061541 38 330 3.5 6.1 0.00 0.00 0.00 54 1017.9
20260505060039 37 345 5.2 7.0 0.00 0.00 0.00 55 1017.9
20260505054540 37 335 5.2 8.7 0.00 0.00 0.00 56 1017.8
20260505053037 36 354 7.0 8.7 0.00 0.00 0.00 57 1017.7
20260505051537 35 341 6.1 7.0 0.00 0.00 0.00 59 1017.6
20260505041549 39 23 5.2 10.4 0.00 0.00 0.00 48 1017.5
20260505040048 39 40 7.0 10.4 0.00 0.00 0.00 48 1017.3
20260505034540 40 35 7.8 9.6 0.00 0.00 0.00 47 1017.3
20260505033038 41 45 6.1 8.7 0.00 0.00 0.00 47 1016.9
20260505031543 42 32 6.1 10.4 0.00 0.00 0.00 45 1016.9
20260505030038 43 35 9.6 13.9 0.00 0.00 0.00 44 1016.5
20260505024547 44 20 8.7 13.9 0.00 0.00 0.00 42 1016.3